RH
28 26 24 24 24 22 23 26 24 22 20 19 18 17 17 17 18 17 17 16 16 16 16 14 14 14 16 15 15 16 17 21 22 25 39 47 59 61 51 43 40 36 32
30 29 26 28 26 25 24 23 22 21 20 19 18 18 18 19 20 19 18 18 18 18 18 17 18 19 20 19 18 17 17 18 19 19 25 31 52 54 52 50 45 37 35
26 25 27 26 22 21 21 20 17 16 16 17 20 21 20 20 19 19 18 18 18 22 23 19 20 20 21 22 21 21 21 21 21 27 30 30 28 33 37 37 37 31 33
22 21 20 23 21 19 16 13 12 13 12 12 12 13 15 15 13 12 16 18 22 25 28 27 26 27 27 29 32 32 30 27 27 29 28 30 35 39 40 36 33 30 32
16 18 18 18 17 15 14 14 13 12 11 11 13 13 12 12 12 12 12 12 13 15 17 23 25 26 26 29 29 29 30 32 32 38 39 36 34 35 34 34 33 37 39
14 13 14 16 16 16 15 15 14 12 12 12 14 13 11 11 12 12 12 12 12 12 15 17 17 17 18 20 18 17 18 20 22 23 28 28 35 38 44 43 44 48 60
17 16 14 13 12 13 14 14 14 15 15 15 14 13 12 12 12 12 12 12 12 12 14 15 16 16 17 18 18 20 20 20 22 22 22 25 26 27 25 27 30 29 34
24 20 17 15 14 14 14 14 14 13 13 12 13 12 12 12 12 13 14 15 16 16 16 16 18 18 18 18 19 20 20 19 22 25 26 25 29 35 35 34 31 33 32
24 23 21 18 18 17 16 15 15 14 14 13 13 13 14 14 14 15 15 16 17 18 18 18 18 18 19 19 19 18 18 19 23 28 29 33 31 35 40 42 39 38 37
28 27 27 25 23 22 20 18 16 16 16 15 14 14 16 16 17 18 18 19 19 21 21 19 17 17 17 18 17 19 21 26 27 28 30 30 34 34 42 39 43 41 39
36 34 31 28 25 23 21 19 19 19 18 18 18 18 16 16 19 22 22 22 20 20 20 19 18 19 17 17 21 26 31 33 30 25 23 25 26 26 27 27 28 29 28
47 53 60 47 32 28 24 22 22 22 22 22 22 22 21 21 21 21 23 22 22 20 19 17 18 18 19 22 27 34 33 26 22 20 19 18 18 16 16 16 18 20 21
57 62 69 70 61 52 43 34 28 25 26 26 26 26 23 24 24 24 22 20 20 20 20 20 19 23 26 30 29 27 24 22 20 19 17 16 15 14 14 15 16 16 17
73 78 70 58 46 38 35 33 30 30 28 30 33 32 28 27 29 26 23 23 24 23 24 26 28 29 32 30 26 28 26 21 21 19 17 17 21 25 22 19 18 17 16
51 45 42 40 37 34 32 31 31 30 28 27 30 34 34 30 34 30 25 26 30 29 30 36 33 38 35 34 34 27 27 25 23 21 19 20 21 19 16 17 20 22 22
54 48 42 40 35 31 30 31 32 34 32 30 32 30 31 38 35 32 35 35 36 39 42 47 45 44 40 37 35 33 29 26 25 23 22 20 20 22 23 22 20 20 19
68 49 44 41 44 45 40 46 43 46 36 37 39 43 46 43 43 49 51 50 55 58 58 62 56 49 41 43 40 42 44 41 35 31 31 34 36 35 33 32 25 21 20
72 62 52 54 57 54 53 54 58 64 66 65 61 59 57 59 69 76 71 70 68 62 56 50 52 56 51 52 50 46 43 46 44 41 45 36 31 29 31 35 34 31 29
79 70 70 68 68 69 74 71 71 79 87 90 80 84 90 88 83 80 77 73 70 64 60 50 61 68 79 88 75 73 71 72 67 57 51 52 50 42 36 31 28 28 29
78 82 72 77 78 70 72 78 76 81 94 97 100 100 100 96 92 86 75 59 59 58 53 49 47 47 59 70 73 74 82 75 72 66 63 54 50 46 39 33 32 31 27
99 100 100 94 94 84 93 91 91 97 97 99 99 97 100 98 88 81 60 75 71 70 65 60 45 40 45 54 65 60 53 50 49 47 53 57 59 61 50 41 41 40 38
100 100 97 98 100 98 97 100 100 97 98 100 98 97 91 84 83 84 76 72 70 87 81 82 63 58 53 49 45 51 56 50 43 44 49 57 64 69 66 67 64 53 50
100 100 100 100 100 100 100 100 100 100 100 97 99 93 87 80 78 84 82 81 88 90 87 80 80 86 74 72 58 48 51 52 52 53 51 51 56 61 59 74 74 67 59
100 100 100 100 100 100 100 100 100 100 99 96 92 85 88 88 80 76 80 85 95 100 98 94 93 94 96 92 87 83 72 74 69 71 75 68 68 64 59 70 79 81 67
100 100 100 100 100 100 100 100 100 100 100 100 100 100 98 92 93 83 88 99 100 95 94 94 100 100 95 86 84 83 91 91 87 92 99 95 90 87 71 84 88 86 68
100 100 100 100 100 100 100 100 100 100 100 100 100 100 100 98 94 100 99 98 100 99 94 99 100 99 94 86 84 81 93 100 100 100 100 99 100 92 95 98 98 93 85
Wind_Speed
33 32 31 30 29 29 30 30 29 29 28 29 30 30 31 31 32 33 34 34 36 35 34 32 33 33 33 33 33 34 34 34 36 37 38 39 39 40 39 42 43 48 49
31 32 32 30 28 26 26 26 26 27 29 31 31 31 32 33 33 34 36 38 39 39 38 36 36 37 38 38 39 39 40 40 40 41 42 42 42 42 45 47 50 54 55
35 34 35 33 31 30 31 31 31 31 31 32 33 34 35 37 39 40 41 41 42 42 42 42 40 42 43 44 44 44 44 44 45 44 44 46 47 48 50 52 56 59 60
39 38 37 36 36 35 34 35 34 34 34 35 36 37 41 43 44 44 43 45 45 45 46 46 47 47 47 48 49 50 50 52 52 52 52 52 52 53 56 58 61 63 64
41 41 41 42 41 41 41 40 39 39 39 39 40 41 43 44 44 44 44 45 46 48 49 50 51 52 54 54 56 56 55 56 58 59 59 59 60 62 64 65 67 67 67
46 45 45 46 47 46 46 46 46 45 45 46 47 48 47 47 47 46 47 48 48 49 51 52 53 54 56 58 59 59 59 61 62 64 64 66 67 68 70 69 70 71 71
49 49 49 49 50 50 51 52 51 51 51 52 51 49 49 50 50 51 52 54 52 54 55 55 56 58 60 61 62 65 65 67 68 68 70 71 72 73 74 75 76 76 78
53 52 52 52 51 52 53 54 54 53 53 52 52 52 52 53 54 55 55 56 57 58 58 59 61 62 64 67 67 68 68 70 71 72 74 75 75 78 76 77 79 80 80
57 58 58 57 55 55 56 56 56 56 55 55 55 55 56 57 56 57 58 60 61 61 62 62 64 66 67 69 70 72 71 73 74 74 75 77 78 79 78 78 79 80 81
58 58 57 56 56 57 57 57 58 58 58 58 57 57 58 59 58 60 61 61 63 63 63 64 67 69 70 72 75 74 75 75 76 76 78 80 81 80 80 81 81 82 82
59 58 59 58 58 58 58 58 58 57 58 59 59 60 60 61 61 63 64 66 66 65 67 70 71 73 74 77 78 79 78 79 77 80 81 83 83 83 82 82 82 81 80
62 61 62 62 61 61 62 61 60 60 61 62 63 62 63 65 66 67 67 67 70 73 75 75 74 76 77 77 78 79 80 80 80 81 82 83 83 81 79 79 77 76 75
66 67 66 64 63 63 65 65 63 64 65 67 67 68 68 68 70 72 73 75 75 76 76 78 77 79 79 79 80 81 78 80 82 82 81 80 78 77 74 73 72 73 71
67 67 67 66 65 66 66 66 66 67 68 69 70 71 72 72 74 75 77 77 76 78 78 78 79 79 81 81 81 81 83 83 81 80 79 77 73 73 71 70 70 71 72
74 71 70 70 69 69 69 70 70 71 71 71 72 73 74 76 76 79 79 80 77 79 79 80 79 80 81 83 85 82 82 81 77 74 72 70 72 72 70 69 68 69 70
79 76 73 73 73 72 72 72 74 74 75 75 76 78 79 78 80 79 78 78 79 78 79 78 80 80 80 77 80 79 77 74 71 67 67 67 68 66 65 66 66 66 66
81 80 79 78 76 77 76 76 76 76 78 78 78 78 78 78 78 74 73 77 72 73 73 71 73 75 76 71 72 68 66 63 63 64 64 63 64 64 64 64 64 64 65
82 81 79 78 78 79 78 76 75 75 76 77 77 77 77 73 68 68 69 69 68 70 70 69 71 69 69 67 67 67 66 65 61 60 58 57 59 60 61 61 62 62 64
82 81 79 79 79 79 79 78 77 76 73 72 73 71 68 66 67 69 67 63 64 65 67 64 61 63 64 64 64 63 63 61 61 61 59 58 59 57 56 57 58 61 64
83 83 83 82 83 82 82 80 79 77 74 70 68 68 66 68 68 67 68 65 67 67 65 62 64 68 68 67 67 67 65 67 65 64 63 64 63 60 59 56 57 59 62
81 81 80 81 82 82 78 80 79 76 75 72 69 66 65 67 68 67 67 63 63 64 64 65 69 70 68 70 69 70 71 71 69 68 65 64 65 65 64 60 64 65 66
81 81 79 78 79 80 79 80 77 77 72 70 69 66 65 65 65 68 67 67 66 68 71 74 73 70 72 74 76 78 76 73 69 65 64 64 66 67 71 74 74 72 72
81 81 79 78 78 80 80 79 77 76 74 73 73 74 75 70 69 67 67 70 73 74 76 76 76 74 75 76 79 78 75 72 69 70 72 72 73 74 76 77 77 79 78
80 79 78 78 77 77 78 79 78 77 77 78 78 78 77 76 77 76 77 78 76 77 78 78 79 74 79 78 80 81 78 76 78 78 79 79 77 78 80 81 81 82 79
77 77 78 78 77 77 78 78 78 77 79 82 83 83 82 82 82 76 77 80 78 79 78 80 79 80 82 84 79 82 83 80 80 79 81 83 85 85 84 80 78 77 76
79 80 80 81 81 81 81 81 81 83 84 85 87 89 90 89 88 87 87 85 84 83 81 80 84 87 86 87 83 82 84 82 82 83 83 87 88 86 80 76 75 76 75
Wind_Direction
232 236 238 240 242 245 246 247 250 252 255 261 264 266 270 271 276 279 281 286 287 287 287 287 290 290 289 287 287 286 285 283 283 281 281 280 278 277 271 274 280 281 288
238 241 239 238 241 246 248 254 259 263 265 267 268 270 274 276 278 281 283 287 290 290 288 286 288 288 288 290 289 288 287 285 283 282 281 280 275 271 270 273 280 288 289
241 242 240 241 240 245 252 256 260 263 266 268 271 274 276 278 283 286 287 287 288 289 286 286 286 286 285 285 285 284 285 284 283 283 281 279 277 276 278 278 280 285 286
244 243 245 240 245 251 252 255 258 261 265 269 272 275 276 278 281 282 281 281 282 282 284 284 285 285 285 286 285 284 283 281 281 280 279 278 277 275 277 278 280 282 284
246 246 246 249 250 252 256 260 263 265 266 269 273 275 276 277 279 280 281 283 282 282 282 282 282 283 283 283 284 284 284 284 284 283 281 279 279 278 278 278 280 282 284
250 251 251 252 256 259 261 264 267 268 270 271 276 278 279 277 278 279 282 284 282 282 282 282 284 284 284 284 284 284 284 284 283 283 282 282 281 281 281 281 282 283 284
252 252 253 255 257 259 261 264 267 268 269 271 274 276 279 281 281 283 284 286 285 287 287 287 287 287 287 286 286 285 285 284 283 283 283 282 282 282 282 282 282 284 284
254 256 257 257 259 262 263 265 266 267 269 270 271 274 277 280 280 282 284 285 287 288 288 288 289 290 288 289 291 291 290 288 288 288 286 284 285 284 284 283 283 284 286
252 254 256 257 259 260 262 264 266 267 269 271 273 275 279 281 282 281 284 287 288 288 288 289 290 290 289 290 291 290 289 292 291 290 289 287 288 286 284 284 284 284 285
252 254 256 259 260 262 263 264 266 269 271 273 275 277 279 281 284 286 287 287 289 289 288 288 289 291 291 292 292 291 291 290 289 289 288 288 286 286 285 285 284 285 285
253 256 258 260 261 264 266 268 271 272 274 276 278 280 282 282 285 287 287 287 287 288 290 290 290 290 292 292 291 293 293 292 291 291 290 287 285 285 285 284 284 285 287
255 259 261 262 264 267 268 269 271 273 275 277 281 283 284 286 286 286 287 287 288 290 290 291 292 292 292 291 291 290 290 291 290 290 288 289 286 286 285 284 284 283 284
259 259 262 265 266 268 270 271 273 275 277 280 283 284 284 285 286 286 287 289 291 292 290 291 290 292 290 291 290 291 290 290 291 289 288 288 287 288 287 285 284 283 283
261 261 262 264 267 268 270 272 274 275 277 279 281 281 283 285 285 286 288 290 290 290 291 289 290 290 287 289 290 290 290 289 289 287 288 287 287 287 288 287 285 284 284
261 262 264 266 268 269 271 274 275 276 278 279 280 281 283 284 284 286 289 289 287 290 289 288 286 289 287 289 289 290 288 288 286 286 287 287 287 287 287 288 287 286 285
261 262 264 266 268 270 271 273 276 277 279 280 280 281 283 284 285 286 287 288 287 287 287 285 285 286 288 288 290 289 290 288 287 286 287 288 288 288 288 287 287 288 288
260 263 264 267 270 272 273 275 277 278 279 279 280 281 283 284 285 284 284 287 285 285 285 284 285 287 289 290 290 291 290 290 290 290 289 289 289 290 289 288 287 287 287
263 265 268 269 271 273 274 276 277 277 278 278 278 280 282 281 282 282 282 282 284 288 289 290 291 291 293 292 291 291 291 290 293 294 294 294 292 291 290 290 290 290 289
263 266 269 271 271 273 273 274 275 276 274 274 277 277 276 276 277 278 280 285 286 286 288 294 292 295 293 290 291 293 295 297 296 293 294 294 296 295 295 295 295 294 291
264 267 269 270 271 272 273 273 274 272 271 270 270 271 272 276 277 279 281 285 285 287 286 292 297 297 295 290 291 291 293 294 294 296 296 295 296 293 292 296 299 298 296
262 263 265 268 269 271 270 271 270 269 269 270 267 270 270 272 276 279 282 288 285 285 285 291 294 297 297 294 292 291 290 292 292 294 294 294 295 292 292 295 299 301 300
260 263 263 264 266 269 269 268 267 269 268 267 268 266 265 267 272 279 281 285 285 288 288 290 292 293 296 301 297 291 292 293 295 296 296 294 293 293 293 294 295 301 303
260 261 262 262 263 265 267 267 267 267 267 267 268 270 272 272 273 275 279 283 286 286 286 287 290 293 296 297 299 295 293 291 294 294 294 293 295 293 294 293 294 297 301
257 259 261 262 263 264 264 267 268 268 269 268 268 270 272 275 275 278 281 282 282 283 283 283 286 288 293 293 295 294 293 293 293 293 296 296 295 294 294 294 294 296 298
255 257 259 260 261 263 264 266 267 268 270 272 273 273 273 274 274 274 277 280 279 281 281 281 281 286 291 293 292 291 291 292 294 294 293 294 293 293 294 292 293 294 295
257 260 262 263 264 265 265 265 265 267 268 269 270 271 272 274 276 276 275 277 278 280 280 277 280 285 288 290 289 288 289 290 290 291 291 291 290 291 291 291 291 293 293